GW3300 Weather Reports


time (UTC)temp
F
wind
direction
speed
knots
gust
knots
rain 1hr
in
rain 24hr
in
rain mn
in
humidity
%
barometer
mb
20260503223528 86 189 1.7 3.5 0.00 0.00 0.00 32 1009.1
20260503223021 86 181 1.7 2.6 0.00 0.00 0.00 32 1009.2
20260503222527 86 198 1.7 4.3 0.00 0.00 0.00 32 1009.3
20260503222040 86 183 1.7 3.5 0.00 0.00 0.00 32 1009.4
20260503221539 86 174 2.6 4.3 0.00 0.00 0.00 32 1009.5
20260503221042 86 115 0.9 2.6 0.00 0.00 0.00 33 1009.5
20260503220527 85 194 2.6 4.3 0.00 0.00 0.00 32 1009.7
20260503220021 85 102 0.9 4.3 0.00 0.00 0.00 33 1009.6
20260503215520 85 220 0.9 2.6 0.00 0.00 0.00 35 1009.7
20260503215023 85 211 1.7 3.5 0.00 0.00 0.00 35 1009.7
20260503214526 85 149 0.9 2.6 0.00 0.00 0.00 34 1009.8
20260503214021 85 29 0.9 2.6 0.00 0.00 0.00 35 1009.8
20260503213521 86 29 0.9 2.6 0.00 0.00 0.00 36 1009.9
20260503213027 86 264 0.9 2.6 0.00 0.00 0.00 36 1010.0
20260503212527 86 263 0.9 2.6 0.00 0.00 0.00 36 1010.0
20260503212029 85 105 0.9 2.6 0.00 0.00 0.00 37 1010.0
20260503211529 85 13 0.9 1.7 0.00 0.00 0.00 38 1010.1
20260503211025 85 11 0.9 1.7 0.00 0.00 0.00 38 1010.1
20260503210539 85 52 0.9 3.5 0.00 0.00 0.00 39 1010.1
20260503210019 85 53 0.9 2.6 0.00 0.00 0.00 39 1010.2
20260503205520 85 113 0.9 1.7 0.00 0.00 0.00 38 1010.3
20260503204523 85 196 0.9 1.7 0.00 0.00 0.00 41 1010.3
20260503204028 84 291 0.9 1.7 0.00 0.00 0.00 42 1010.4
20260503203529 84 205 0.9 2.6 0.00 0.00 0.00 43 1010.5
20260503203044 83 220 0.9 3.5 0.00 0.00 0.00 43 1010.6
20260503202542 83 196 0.9 2.6 0.00 0.00 0.00 44 1010.6
20260503202050 83 203 0.9 3.5 0.00 0.00 0.00 46 1010.7
20260503201530 83 66 0.9 2.6 0.00 0.00 0.00 46 1010.7
20260503201049 83 5 0.9 2.6 0.00 0.00 0.00 46 1010.8
20260503200522 83 353 0.9 3.5 0.00 0.00 0.00 48 1010.9
20260503200019 82 181 0.9 2.6 0.00 0.00 0.00 50 1010.9
20260503195539 82 186 1.7 3.5 0.00 0.00 0.00 52 1011.0
20260503195121 81 14 0.9 2.6 0.00 0.00 0.00 53 1011.1
20260503194528 81 215 1.7 3.5 0.00 0.00 0.00 54 1011.1
20260503194040 81 314 0.9 2.6 0.00 0.00 0.00 54 1011.1
20260503193520 81 239 1.7 3.5 0.00 0.00 0.00 56 1011.3
20260503193047 81 140 0.9 3.5 0.00 0.00 0.00 56 1011.3
20260503192536 80 293 0.9 1.7 0.00 0.00 0.00 58 1011.3
20260503192019 80 212 0.9 3.5 0.00 0.00 0.00 56 1011.4
20260503191531 79 41 0.9 2.6 0.00 0.00 0.00 58 1011.4
20260503191032 79 325 0.9 2.6 0.00 0.00 0.00 56 1011.4
20260503190521 79 336 0.9 1.7 0.00 0.00 0.00 59 1011.5
20260503190020 78 206 1.7 3.5 0.00 0.00 0.00 57 1011.7
20260503185522 78 40 1.7 3.5 0.00 0.00 0.00 60 1011.6
20260503185021 77 248 0.9 1.7 0.00 0.00 0.00 60 1011.7
20260503184519 77 263 0.9 1.7 0.00 0.00 0.00 60 1011.7
20260503184024 77 174 0.9 1.7 0.00 0.00 0.00 64 1011.8
20260503183519 76 115 1.7 2.6 0.00 0.00 0.00 62 1011.8
20260503183020 75 228 0.9 1.7 0.00 0.00 0.00 63 1011.9
20260503182521 75 219 0.9 2.6 0.00 0.00 0.00 64 1011.9
20260503182027 74 145 0.0 1.7 0.00 0.00 0.00 66 1012.0
20260503181520 73 189 0.9 2.6 0.00 0.00 0.00 66 1012.0
20260503181028 72 195 1.7 2.6 0.00 0.00 0.00 67 1012.1
20260503180542 72 229 0.9 2.6 0.00 0.00 0.00 68 1012.1
20260503180024 71 24 0.9 1.7 0.00 0.00 0.00 68 1012.2
20260503175522 70 54 0.9 1.7 0.00 0.00 0.00 67 1012.2
20260503175020 70 55 0.9 2.6 0.00 0.00 0.00 69 1012.2
20260503174527 69 280 0.9 1.7 0.00 0.00 0.00 71 1012.3
20260503174027 69 303 0.9 1.7 0.00 0.00 0.00 71 1012.3
20260503173520 68 299 0.9 1.7 0.00 0.00 0.00 71 1012.4
20260503173021 68 248 0.9 1.7 0.00 0.00 0.00 72 1012.4
20260503172544 67 58 0.9 2.6 0.00 0.00 0.00 72 1012.4
20260503172027 66 20 0.9 2.6 0.00 0.00 0.00 74 1012.4
20260503171521 66 334 0.0 1.7 0.00 0.00 0.00 76 1012.5
20260503171023 66 219 0.0 0.9 0.00 0.00 0.00 75 1012.6
20260503170530 65 171 0.0 1.7 0.00 0.00 0.00 77 1012.6
20260503150546 54 171 0.0 1.7 0.00 0.00 0.00 98 1013.0
20260503131021 51 107 0.0 0.9 0.00 0.00 0.00 97 1012.5
20260503130528 51 0.0 0.0 0.00 0.00 0.00 97 1012.4
20260503110524 52 0.0 0.9 0.00 0.00 0.00 96 1013.0
20260503081600 56 0 0.0 1.7 0.00 0.00 0.00 92 1013.2
20260503081030 56 143 0.0 0.9 0.00 0.00 0.00 92 1013.1
20260503080527 56 202 0.0 0.9 0.00 0.00 0.00 92 1013.2
20260503072522 58 177 0.9 1.7 0.00 0.00 0.00 90 1013.1
20260503072022 58 65 0.0 0.9 0.00 0.00 0.00 90 1013.1
20260503071522 58 3 0.0 0.9 0.00 0.00 0.00 90 1013.0
20260503071149 58 334 0.0 0.9 0.00 0.00 0.00 90 1013.0
20260503070519 58 308 0.0 0.9 0.00 0.00 0.00 89 1013.0
20260503055021 60 233 0.0 1.7 0.00 0.00 0.00 86 1013.6
20260503054529 60 0.0 0.0 0.00 0.00 0.00 86 1013.5
20260503054019 60 0.0 0.0 0.00 0.00 0.00 85 1013.6
20260503053520 60 0.0 0.0 0.00 0.00 0.00 85 1013.8
20260503053027 60 0.0 0.0 0.00 0.00 0.00 85 1013.8
20260503052521 61 0.0 0.9 0.00 0.00 0.00 84 1013.7
20260503052019 61 258 0.0 1.7 0.00 0.00 0.00 84 1013.6
20260503051526 61 196 0.9 1.7 0.00 0.00 0.00 83 1013.6
20260503051044 61 0.0 0.0 0.00 0.00 0.00 83 1013.6
20260503050530 61 15 0.0 1.7 0.00 0.00 0.00 82 1013.7
20260503050022 62 90 0.0 0.9 0.00 0.00 0.00 82 1013.7
20260503045525 62 0.0 0.9 0.00 0.00 0.00 81 1013.6
20260503045026 62 0.0 0.9 0.00 0.00 0.00 81 1013.7
20260503044522 62 14 0.0 0.9 0.00 0.00 0.00 80 1013.6
20260503044042 63 0.0 0.9 0.00 0.00 0.00 80 1013.6
20260503043524 63 0.0 0.9 0.00 0.00 0.00 78 1013.7
20260503043030 64 0.0 0.0 0.00 0.00 0.00 78 1013.6
20260503042523 64 328 0.0 0.9 0.00 0.00 0.00 77 1013.7
20260503042023 64 280 0.0 1.7 0.00 0.00 0.00 76 1013.7
20260503041530 65 0.0 0.9 0.00 0.00 0.00 74 1013.5
20260503041022 65 0.0 0.0 0.00 0.00 0.00 74 1013.6
20260503040521 66 0.0 0.9 0.00 0.00 0.00 73 1013.6
20260503040021 66 125 0.0 0.9 0.00 0.00 0.00 73 1013.5
20260503035529 66 317 0.0 1.7 0.00 0.00 0.00 72 1013.5
20260503035021 67 89 0.0 0.9 0.00 0.00 0.00 72 1013.4
20260503034603 67 204 0.0 1.7 0.00 0.00 0.00 71 1013.1
20260503034020 68 198 0.0 1.7 0.00 0.00 0.00 71 1013.1
20260503033534 68 108 0.0 1.7 0.00 0.00 0.00 69 1013.0
20260503033032 69 182 0.0 1.7 0.00 0.00 0.00 69 1013.0
20260503032524 69 126 0.0 1.7 0.00 0.00 0.00 68 1012.9
20260503032018 69 207 0.0 1.7 0.00 0.00 0.00 68 1012.9
20260503031529 70 110 0.0 1.7 0.00 0.00 0.00 67 1012.8
20260503031026 70 281 0.0 0.9 0.00 0.00 0.00 67 1012.7
20260503030537 71 137 0.9 2.6 0.00 0.00 0.00 66 1012.5
20260503030042 71 145 0.9 2.6 0.00 0.00 0.00 65 1012.4
20260503025522 71 185 1.7 4.3 0.00 0.00 0.00 66 1012.3
20260503025033 71 106 0.0 1.7 0.00 0.00 0.00 69 1012.2
20260503024529 71 188 0.0 0.9 0.00 0.00 0.00 69 1012.1
20260503024021 71 208 0.0 0.9 0.00 0.00 0.00 68 1011.8
20260503023523 72 154 0.0 1.7 0.00 0.00 0.00 66 1011.8
20260503023049 72 155 0.0 0.9 0.00 0.00 0.00 64 1011.7
20260503022529 73 327 0.0 0.9 0.00 0.00 0.00 64 1011.7
20260503022102 73 192 0.0 0.9 0.00 0.00 0.00 63 1011.5
20260503021529 73 0.0 0.9 0.00 0.00 0.00 62 1011.6
20260503021038 73 326 0.0 0.9 0.00 0.00 0.00 60 1011.6
20260503020521 73 130 0.0 1.7 0.00 0.00 0.00 61 1011.5
20260503020024 73 156 0.0 0.9 0.00 0.00 0.00 62 1011.5
20260503015529 73 165 0.0 0.9 0.00 0.00 0.00 61 1011.5
20260503015029 73 173 0.9 2.6 0.00 0.00 0.00 63 1011.4
20260503014518 73 177 0.0 1.7 0.00 0.00 0.00 65 1011.4
20260503014019 73 18 0.0 0.9 0.00 0.00 0.00 64 1011.5
20260503013523 73 257 0.0 0.9 0.00 0.00 0.00 62 1011.6
20260503013022 73 345 0.9 1.7 0.00 0.00 0.00 61 1011.5
20260503012525 73 167 0.9 2.6 0.00 0.00 0.00 61 1011.5
20260503012020 73 151 0.0 1.7 0.00 0.00 0.00 62 1011.6
20260503011519 73 88 0.0 1.7 0.00 0.00 0.00 61 1011.5
20260503011023 73 185 0.9 2.6 0.00 0.00 0.00 61 1011.5
20260503010524 73 49 0.0 1.7 0.00 0.00 0.00 61 1011.6
20260503010035 73 164 1.7 2.6 0.00 0.00 0.00 61 1011.5
20260503005530 73 161 0.0 2.6 0.00 0.00 0.00 62 1011.5
20260503005024 72 206 0.9 2.6 0.00 0.00 0.00 62 1011.6
20260503004521 72 173 0.9 2.6 0.00 0.00 0.00 62 1011.7
20260503004019 72 162 0.9 2.6 0.00 0.00 0.00 63 1011.6
20260503003522 72 350 0.0 1.7 0.00 0.00 0.00 64 1011.6
20260503003025 72 185 0.9 1.7 0.00 0.00 0.00 63 1011.7
20260503002518 72 183 0.9 2.6 0.00 0.00 0.00 63 1011.6
20260503002021 72 348 0.9 1.7 0.00 0.00 0.00 64 1011.6
20260503001523 72 218 0.9 1.7 0.00 0.00 0.00 65 1011.6
20260503001050 71 104 0.0 1.7 0.00 0.00 0.00 64 1011.6
20260503000542 71 317 0.0 1.7 0.00 0.00 0.00 65 1011.7
20260503000021 71 238 0.0 1.7 0.00 0.00 0.00 65 1011.8
20260502235520 71 175 1.7 5.2 0.00 0.00 0.00 65 1011.8
20260502235030 71 168 1.7 3.5 0.00 0.00 0.00 65 1011.8
20260502234529 71 47 0.9 1.7 0.00 0.00 0.00 66 1011.8
20260502234023 71 246 0.0 1.7 0.00 0.00 0.00 65 1012.0
20260502233520 70 202 0.9 1.7 0.00 0.00 0.00 65 1012.1
20260502233019 70 350 0.9 2.6 0.00 0.00 0.00 65 1012.1
20260502232521 70 334 0.9 2.6 0.00 0.00 0.00 66 1012.2
20260502232030 70 149 0.9 1.7 0.00 0.00 0.00 67 1012.3
20260502231519 69 198 0.9 2.6 0.00 0.00 0.00 66 1012.4
20260502231021 69 240 1.7 3.5 0.00 0.00 0.00 67 1012.4
20260502230523 69 193 0.9 4.3 0.00 0.00 0.00 67 1012.5
20260502230046 69 321 0.0 1.7 0.00 0.00 0.00 67 1012.6
20260502225521 69 36 0.0 1.7 0.00 0.00 0.00 68 1012.6
20260502225026 68 56 0.9 2.6 0.00 0.00 0.00 67 1012.9
20260502224524 68 94 0.9 2.6 0.00 0.00 0.00 68 1012.9
20260502224027 68 259 0.0 1.7 0.00 0.00 0.00 67 1013.0